sat.trackr.live / text

‹ back to catalog

STARLINK-34091

NORAD 63808 · 2025-092E

PAYLOAD ACTIVE UNKNOWN

§ Identity

Operator
Country
US
Launch date
2025-05-04
Launch site
AFETR
Launch vehicle
Mass (kg)
RCS (m²)

Purposes: comms

External: N2YO · Heavens-Above · Gunter

§ Orbital elements

Epoch: 2026-09-19T02:31:16.539456Z

Period
94.27 min
Inclination
43.0043°
Eccentricity
0.0001981
Mean motion
15.27587681 rev/d
Perigee alt
481.7 km
Apogee alt
484.4 km
Semi-major
6,861.2 km
B*
4.1985e-4
RAAN
160.3581°
Arg perigee
264.2395°
Mean anomaly
95.8230°
Rev number
7,824

§ Raw data

STARLINK-340911 63808U 25092E   26262.10505254  .00011312  00000+0  41985-3 0  99902 63808  43.0043 160.3581 0001981 264.2395  95.8230 15.27587681 78243

JSON: /api/v1/satellites/63808 · /tle

For live sub-satellite position, see the globe view (requires WebGL).

§ Visibility from observer

Set your observer location to see the next 7 days of passes ≥ 10°. The values pass through the URL so the page stays shareable.

No JS? Fill the form by hand. The geolocation button needs JavaScript.